TimeCDT,TemperatureF,Dew PointF,Humidity,Sea Level PressureIn,VisibilityMPH,Wind Direction,Wind SpeedMPH,Gust SpeedMPH,PrecipitationIn,Events,Conditions,WindDirDegrees,DateUTC
12:58 AM,67.5,60.8,79,30.10,10.0,NE,9.2,-,N/A,,Clear,40,2013-10-14 05:58:00
1:58 AM,64.9,61.0,87,30.10,10.0,NE,6.9,-,N/A,,Clear,40,2013-10-14 06:58:00
2:58 AM,63.7,60.6,90,30.10,10.0,NE,8.1,-,N/A,,Clear,50,2013-10-14 07:58:00
3:58 AM,63.3,61.2,93,30.10,10.0,NE,8.1,-,N/A,,Clear,40,2013-10-14 08:58:00
4:58 AM,62.4,60.6,94,30.12,10.0,NE,6.9,-,N/A,,Clear,50,2013-10-14 09:58:00
5:58 AM,62.1,60.6,95,30.14,10.0,NE,6.9,-,N/A,,Clear,50,2013-10-14 10:58:00
6:58 AM,61.5,60.3,96,30.14,10.0,NE,5.8,-,N/A,,Clear,50,2013-10-14 11:58:00
7:58 AM,64.9,63.0,93,30.15,10.0,ENE,8.1,-,N/A,,Clear,60,2013-10-14 12:58:00
8:58 AM,68.0,63.5,85,30.17,10.0,NE,8.1,-,N/A,,Clear,50,2013-10-14 13:58:00
9:58 AM,72.0,64.2,77,30.16,10.0,ENE,6.9,-,N/A,,Partly Cloudy,70,2013-10-14 14:58:00
10:38 AM,75.2,64.4,69,30.14,10.0,NNE,9.2,-,N/A,,Mostly Cloudy,20,2013-10-14 15:38:00
10:58 AM,76.6,64.0,65,30.14,10.0,NNE,10.4,-,N/A,,Mostly Cloudy,30,2013-10-14 15:58:00
11:03 AM,77.0,64.4,65,30.13,10.0,NNE,8.1,-,N/A,,Scattered Clouds,30,2013-10-14 16:03:00
11:58 AM,78.4,63.5,60,30.12,10.0,NNE,9.2,-,N/A,,Partly Cloudy,20,2013-10-14 16:58:00
12:58 PM,80.1,63.3,56,30.10,10.0,North,6.9,-,N/A,,Mostly Cloudy,10,2013-10-14 17:58:00
1:58 PM,79.3,62.8,57,30.06,10.0,NNE,4.6,-,N/A,,Scattered Clouds,20,2013-10-14 18:58:00
2:58 PM,80.4,62.2,54,30.06,10.0,North,8.1,-,N/A,,Mostly Cloudy,10,2013-10-14 19:58:00
3:58 PM,80.4,63.9,57,30.06,10.0,NE,17.3,20.7,N/A,,Partly Cloudy,50,2013-10-14 20:58:00
4:58 PM,77.0,62.4,61,30.06,10.0,NE,11.5,-,N/A,,Clear,40,2013-10-14 21:58:00
5:58 PM,71.8,62.4,72,30.09,10.0,NE,10.4,-,N/A,,Clear,40,2013-10-14 22:58:00
6:58 PM,68.0,61.7,80,30.09,10.0,NNE,6.9,-,N/A,,Clear,30,2013-10-14 23:58:00
7:58 PM,66.0,61.2,84,30.11,10.0,NE,4.6,-,N/A,,Clear,50,2013-10-15 00:58:00
8:58 PM,64.8,61.5,89,30.12,10.0,NNE,5.8,-,N/A,,Clear,30,2013-10-15 01:58:00
9:58 PM,63.9,61.3,91,30.10,10.0,NE,5.8,-,N/A,,Clear,40,2013-10-15 02:58:00
10:58 PM,62.2,60.4,94,30.10,10.0,NE,4.6,-,N/A,,Clear,40,2013-10-15 03:58:00
11:58 PM,62.6,60.8,94,30.09,10.0,NNE,4.6,-,N/A,,Clear,20,2013-10-15 04:58:00